KUIPER-00160

Last updated on Sun Mar 15 2026 00:02:06 GMT+0000 (Coordinated Universal Time)

1 67765U 26030B 26073.57954246 .00039539 00000+0 11210-2 0 9997 2 67765 51.8816 195.5949 0005454 67.1805 292.9757 15.35845462 5840
UTC large
Height (km)
Speed (km/s)
/
Latitude / Longitude
Inclination (degrees)
Orbital Period (minutes)
Azimuth
Elevation
Range (km)
Doppler Factor

Next 0 passes for location: London (51.5072 / 0.1276)

Sorry there are no passes over London.